Simultaneous Nadir Overpasses (SNOs) Predictions

Prediction of SNOs between LANDSAT-8 and NOAA-19 Satellite Orbit:

Table of predicted SNOs for the next 14.0 days since TLE Epoch: 6/26/2021
Index Date (LANDSAT-8) Time (LANDSAT-8) Lat,Lon (LANDSAT-8) SZA (LANDSAT-8 ) Date (NOAA-19) Time (NOAA-19) Lat,Lon (NOAA-19) SZA (NOAA-19 ) Distance(km) Time Diff (sec)
1 06/27/2021 15:02:52 80.42, -14.24 58.53 06/27/2021 15:02:36 80.41, -14.12 58.53 2.75 16
2 06/27/2021 15:52:18 -80.45, 153.67 121.42 06/27/2021 15:53:32 -80.37, 153.93 121.44 10.52 74
3 06/29/2021 20:36:37 -80.42, 82.27 121.38 06/29/2021 20:35:45 -80.44, 82.17 121.39 2.78 52
4 06/29/2021 21:26:03 80.42,-110.03 58.64 06/29/2021 21:26:45 80.41,-110.14 58.64 2.20 42
5 07/02/2021 02:59:48 -80.42, -13.52 121.23 07/02/2021 02:59:54 -80.43, -13.67 121.23 3.03 6
6 07/04/2021 08:33:32 80.41, 83.01 58.94 07/04/2021 08:33:03 80.43, 83.12 58.95 2.79 29
7 07/04/2021 09:22:59 -80.42,-109.34 121.06 07/04/2021 09:24:02 -80.41,-109.20 121.03 2.68 63
8 07/06/2021 14:07:16 -80.44, 179.84 120.81 07/06/2021 14:06:12 -80.43, 179.96 120.84 2.52 64
9 07/06/2021 14:56:42 80.44, -12.52 59.19 07/06/2021 14:57:11 80.42, -12.65 59.18 3.06 29



Historial Predications of SNOs between LANDSAT-8 and NOAA-19
